Time,TemperatureF,DewpointF,PressureIn,WindDirection,WindDirectionDegrees,WindSpeedMPH,WindSpeedGustMPH,Humidity,HourlyPrecipIn,Conditions,Clouds,dailyrainin,SoftwareType,DateUTC
2013-08-07 00:04:00,68.5,67.1,29.71,SW,225,3.4,3.4,95,0.00,,CLR,0.00,VWS V14.01,2013-08-07 04:04:00,
2013-08-07 00:09:00,68.7,67.2,29.71,South,180,3.8,3.8,95,0.00,,CLR,0.00,VWS V14.01,2013-08-07 04:09:00,
2013-08-07 00:14:00,68.7,67.2,29.71,SW,225,3.6,3.8,95,0.00,,CLR,0.00,VWS V14.01,2013-08-07 04:14:00,
2013-08-07 00:19:00,68.5,67.1,29.74,SW,225,2.7,3.6,95,0.00,,CLR,0.00,VWS V14.01,2013-08-07 04:19:00,
2013-08-07 00:24:00,68.5,67.1,29.74,SSW,202,4.3,4.3,95,0.00,,CLR,0.00,VWS V14.01,2013-08-07 04:24:00,
2013-08-07 00:29:00,68.5,67.1,29.74,SSW,202,3.8,4.3,95,0.00,,CLR,0.00,VWS V14.01,2013-08-07 04:29:00,
2013-08-07 00:34:00,68.5,67.1,29.74,SW,225,4.3,4.3,95,0.00,,CLR,0.00,VWS V14.01,2013-08-07 04:34:00,
2013-08-07 00:39:00,68.5,67.1,29.74,SSW,202,3.6,4.3,95,0.00,,CLR,0.00,VWS V14.01,2013-08-07 04:39:00,
2013-08-07 00:44:00,68.5,67.1,29.74,South,180,2.9,3.6,95,0.00,,CLR,0.00,VWS V14.01,2013-08-07 04:44:00,
2013-08-07 00:49:00,68.5,67.1,29.71,SW,225,3.8,3.8,95,0.00,,CLR,0.00,VWS V14.01,2013-08-07 04:49:00,
2013-08-07 00:54:00,68.5,67.1,29.71,SSW,202,3.8,3.8,95,0.00,,CLR,0.00,VWS V14.01,2013-08-07 04:54:00,
2013-08-07 00:59:00,68.5,67.1,29.71,SSW,202,3.6,3.8,95,0.00,,CLR,0.00,VWS V14.01,2013-08-07 04:59:00,
2013-08-07 01:04:00,68.5,67.1,29.74,SSW,202,4.9,4.9,95,0.00,,CLR,0.00,VWS V14.01,2013-08-07 05:04:00,
2013-08-07 01:09:00,68.5,67.1,29.74,South,180,3.1,4.9,95,0.00,,CLR,0.00,VWS V14.01,2013-08-07 05:09:00,
2013-08-07 05:25:00,68.4,66.6,29.74,South,180,4.9,5.6,94,0.00,,CLR,0.00,VWS V14.01,2013-08-07 09:25:00,
2013-08-07 05:26:00,68.2,67.6,29.68,SSE,158,12.3,12.3,98,0.00,,CLR,0.00,VWS V14.01,2013-08-07 09:26:00,
2013-08-07 05:31:00,68.4,67.8,29.68,WSW,248,4.0,12.3,98,0.00,,CLR,0.00,VWS V14.01,2013-08-07 09:31:00,
2013-08-07 05:36:00,68.4,67.8,29.68,SW,225,3.6,12.3,98,0.00,,CLR,0.00,VWS V14.01,2013-08-07 09:36:00,
2013-08-07 05:41:00,68.4,67.8,29.68,SSW,202,3.8,12.3,98,0.00,,CLR,0.00,VWS V14.01,2013-08-07 09:41:00,
2013-08-07 05:46:00,68.5,68.0,29.68,WSW,248,7.4,12.3,98,0.00,,CLR,0.00,VWS V14.01,2013-08-07 09:46:00,
2013-08-07 05:51:00,68.5,68.0,29.65,SW,225,5.8,12.3,98,0.00,,CLR,0.00,VWS V14.01,2013-08-07 09:51:00,
2013-08-07 05:56:00,68.5,68.0,29.65,SSW,202,5.4,12.3,98,0.00,,CLR,0.00,VWS V14.01,2013-08-07 09:56:00,
2013-08-07 06:00:00,68.5,68.0,29.65,SW,225,5.6,12.3,98,0.00,,CLR,0.00,VWS V14.01,2013-08-07 10:00:00,
2013-08-07 06:01:00,68.7,68.1,29.65,SW,225,5.6,5.6,98,0.00,,CLR,0.00,VWS V14.01,2013-08-07 10:01:00,
2013-08-07 06:06:00,68.9,68.3,29.68,SW,225,5.6,6.5,98,0.00,,CLR,0.00,VWS V14.01,2013-08-07 10:06:00,
2013-08-07 06:11:00,68.9,68.3,29.68,WSW,248,7.6,7.6,98,0.00,,CLR,0.00,VWS V14.01,2013-08-07 10:11:00,
2013-08-07 06:16:00,69.1,68.5,29.68,WSW,248,6.7,8.5,98,0.00,,CLR,0.00,VWS V14.01,2013-08-07 10:16:00,
2013-08-07 06:21:00,67.8,65.7,29.68,WNW,292,5.4,8.5,93,0.00,,CLR,0.00,VWS V14.01,2013-08-07 10:21:00,
2013-08-07 06:26:00,66.9,60.9,29.68,WNW,292,8.7,8.7,81,0.00,,CLR,0.00,VWS V14.01,2013-08-07 10:26:00,
2013-08-07 06:31:00,65.5,60.9,29.68,WNW,292,8.7,8.7,85,0.00,,CLR,0.00,VWS V14.01,2013-08-07 10:31:00,
2013-08-07 06:36:00,64.4,61.7,29.74,WNW,292,8.7,8.7,91,0.13,,CLR,0.13,VWS V14.01,2013-08-07 10:36:00,
2013-08-07 06:41:00,63.9,61.8,29.74,WNW,292,8.7,8.7,93,0.25,,CLR,0.25,VWS V14.01,2013-08-07 10:41:00,
2013-08-07 06:46:00,63.3,61.3,29.74,WNW,292,8.7,8.7,93,0.29,,CLR,0.29,VWS V14.01,2013-08-07 10:46:00,
2013-08-07 06:51:00,63.1,61.4,29.74,WNW,292,8.7,8.7,94,0.33,,CLR,0.33,VWS V14.01,2013-08-07 10:51:00,
2013-08-07 06:56:00,63.0,61.5,29.74,WNW,292,8.7,8.7,95,0.33,,CLR,0.33,VWS V14.01,2013-08-07 10:56:00,
2013-08-07 07:00:00,62.8,61.6,29.74,WNW,292,8.7,8.7,96,0.33,,CLR,0.33,VWS V14.01,2013-08-07 11:00:00,
2013-08-07 07:01:00,62.8,61.6,29.74,WNW,292,8.7,8.7,96,0.33,,CLR,0.33,VWS V14.01,2013-08-07 11:01:00,
2013-08-07 07:06:00,62.6,61.5,29.74,WNW,292,8.7,8.7,96,0.38,,CLR,0.38,VWS V14.01,2013-08-07 11:06:00,
2013-08-07 07:11:00,62.4,61.6,29.74,WNW,292,8.7,8.7,97,0.38,,CLR,0.38,VWS V14.01,2013-08-07 11:11:00,
2013-08-07 07:16:00,62.4,61.8,29.74,WNW,292,8.7,8.7,98,0.38,,CLR,0.38,VWS V14.01,2013-08-07 11:16:00,
2013-08-07 07:21:00,62.4,61.8,29.74,WNW,292,8.7,8.7,98,0.38,,CLR,0.38,VWS V14.01,2013-08-07 11:21:00,
2013-08-07 07:26:00,62.4,61.8,29.74,WNW,292,8.7,8.7,98,0.38,,CLR,0.38,VWS V14.01,2013-08-07 11:26:00,
2013-08-07 07:31:00,62.6,62.0,29.74,WNW,292,8.7,8.7,98,0.38,,CLR,0.38,VWS V14.01,2013-08-07 11:31:00,
2013-08-07 07:36:00,62.6,62.0,29.74,WNW,292,8.7,8.7,98,0.38,,CLR,0.38,VWS V14.01,2013-08-07 11:36:00,
2013-08-07 07:41:00,62.6,62.0,29.74,WNW,292,8.7,8.7,98,0.38,,CLR,0.38,VWS V14.01,2013-08-07 11:41:00,
2013-08-07 07:46:00,62.6,62.0,29.74,WNW,292,8.7,8.7,98,0.38,,CLR,0.38,VWS V14.01,2013-08-07 11:46:00,
2013-08-07 07:51:00,62.6,62.0,29.74,WNW,292,8.7,8.7,98,0.38,,CLR,0.38,VWS V14.01,2013-08-07 11:51:00,
2013-08-07 07:56:00,62.6,62.0,29.74,WNW,292,8.7,8.7,98,0.38,,CLR,0.38,VWS V14.01,2013-08-07 11:56:00,
2013-08-07 08:00:00,62.6,62.0,29.74,WNW,292,8.7,8.7,98,0.38,,CLR,0.38,VWS V14.01,2013-08-07 12:00:00,
2013-08-07 08:01:00,62.8,62.2,29.74,WNW,292,8.7,8.7,98,0.05,,CLR,0.38,VWS V14.01,2013-08-07 12:01:00,
2013-08-07 08:06:00,62.8,62.2,29.74,WNW,292,8.7,8.7,98,0.05,,CLR,0.38,VWS V14.01,2013-08-07 12:06:00,
2013-08-07 08:11:00,63.0,62.4,29.74,WNW,292,8.7,8.7,98,0.05,,CLR,0.38,VWS V14.01,2013-08-07 12:11:00,
2013-08-07 08:16:00,63.5,62.9,29.74,WNW,292,8.7,8.7,98,0.05,,CLR,0.38,VWS V14.01,2013-08-07 12:16:00,
2013-08-07 08:21:00,63.5,62.9,29.74,WNW,292,8.7,8.7,98,0.05,,CLR,0.38,VWS V14.01,2013-08-07 12:21:00,
2013-08-07 08:26:00,63.7,63.1,29.74,WNW,292,8.7,8.7,98,0.05,,CLR,0.38,VWS V14.01,2013-08-07 12:26:00,
2013-08-07 08:31:00,63.9,63.3,29.74,WNW,292,8.7,8.7,98,0.05,,CLR,0.38,VWS V14.01,2013-08-07 12:31:00,
2013-08-07 08:37:00,64.2,63.7,29.74,WNW,292,8.7,8.7,98,0.05,,CLR,0.38,VWS V14.01,2013-08-07 12:37:00,
2013-08-07 08:42:00,64.0,63.5,29.74,WNW,292,8.7,8.7,98,0.05,,CLR,0.38,VWS V14.01,2013-08-07 12:42:00,
2013-08-07 08:47:00,64.2,63.7,29.74,WNW,292,8.7,8.7,98,0.05,,CLR,0.38,VWS V14.01,2013-08-07 12:47:00,
2013-08-07 08:52:00,64.2,63.7,29.74,WNW,292,8.7,8.7,98,0.05,,CLR,0.38,VWS V14.01,2013-08-07 12:52:00,
2013-08-07 08:57:00,64.2,63.7,29.74,WNW,292,8.7,8.7,98,0.05,,CLR,0.38,VWS V14.01,2013-08-07 12:57:00,
2013-08-07 09:00:00,64.4,63.8,29.74,WNW,292,8.7,8.7,98,0.05,,CLR,0.38,VWS V14.01,2013-08-07 13:00:00,
2013-08-07 09:02:00,64.4,63.8,29.74,WNW,292,8.7,8.7,98,0.00,,CLR,0.38,VWS V14.01,2013-08-07 13:02:00,
2013-08-07 09:07:00,64.4,63.8,29.74,WNW,292,8.7,8.7,98,0.00,,CLR,0.38,VWS V14.01,2013-08-07 13:07:00,
2013-08-07 09:12:00,64.4,63.8,29.74,WNW,292,8.7,8.7,98,0.00,,CLR,0.38,VWS V14.01,2013-08-07 13:12:00,
2013-08-07 09:17:00,64.4,63.8,29.74,WNW,292,8.7,8.7,98,0.00,,CLR,0.38,VWS V14.01,2013-08-07 13:17:00,
2013-08-07 09:22:00,64.4,63.8,29.74,WNW,292,8.7,8.7,98,0.00,,CLR,0.38,VWS V14.01,2013-08-07 13:22:00,
2013-08-07 09:27:00,64.6,64.0,29.74,WNW,292,8.7,8.7,98,0.00,,CLR,0.38,VWS V14.01,2013-08-07 13:27:00,
2013-08-07 09:32:00,64.8,64.2,29.74,WNW,292,8.7,8.7,98,0.00,,CLR,0.38,VWS V14.01,2013-08-07 13:32:00,
2013-08-07 09:37:00,64.8,64.2,29.68,WNW,292,8.7,8.7,98,0.04,,CLR,0.42,VWS V14.01,2013-08-07 13:37:00,
2013-08-07 09:42:00,64.9,64.4,29.68,SSE,158,10.3,10.3,98,0.04,,CLR,0.42,VWS V14.01,2013-08-07 13:42:00,
2013-08-07 09:47:00,65.3,64.4,29.68,SSE,158,10.3,10.3,97,0.04,,CLR,0.42,VWS V14.01,2013-08-07 13:47:00,
2013-08-07 09:52:00,66.0,64.8,29.68,SSE,158,10.3,10.3,96,0.04,,CLR,0.42,VWS V14.01,2013-08-07 13:52:00,
2013-08-07 09:57:00,66.6,65.1,29.68,SSE,158,10.3,10.3,95,0.04,,CLR,0.42,VWS V14.01,2013-08-07 13:57:00,
2013-08-07 10:00:00,67.5,66.0,29.68,SSE,158,10.3,10.3,95,0.04,,CLR,0.42,VWS V14.01,2013-08-07 14:00:00,
2013-08-07 10:02:00,67.8,66.6,29.68,SW,225,2.2,10.3,96,0.04,,CLR,0.42,VWS V14.01,2013-08-07 14:02:00,
2013-08-07 10:07:00,68.9,66.5,29.68,SE,135,2.9,10.3,92,0.04,,CLR,0.42,VWS V14.01,2013-08-07 14:07:00,
2013-08-07 10:12:00,69.6,65.9,29.68,SSW,202,3.8,10.3,88,0.04,,CLR,0.42,VWS V14.01,2013-08-07 14:12:00,
2013-08-07 10:17:00,71.8,66.0,29.68,SSE,158,3.1,10.3,82,0.04,,CLR,0.42,VWS V14.01,2013-08-07 14:17:00,
2013-08-07 10:22:00,71.2,63.7,29.68,South,180,4.9,10.3,77,0.04,,CLR,0.42,VWS V14.01,2013-08-07 14:22:00,
2013-08-07 10:27:00,72.0,64.0,29.68,SW,225,5.8,10.3,76,0.04,,CLR,0.42,VWS V14.01,2013-08-07 14:27:00,
2013-08-07 10:32:00,72.0,63.2,29.68,SSW,202,6.5,10.3,74,0.04,,CLR,0.42,VWS V14.01,2013-08-07 14:32:00,
2013-08-07 10:37:00,72.3,63.6,29.71,SW,225,6.5,10.3,74,0.04,,CLR,0.42,VWS V14.01,2013-08-07 14:37:00,
2013-08-07 10:42:00,73.2,63.3,29.71,WSW,248,5.8,11.0,71,0.04,,CLR,0.42,VWS V14.01,2013-08-07 14:42:00,
2013-08-07 10:47:00,73.2,61.6,29.71,South,180,5.4,11.2,67,0.04,,CLR,0.42,VWS V14.01,2013-08-07 14:47:00,
2013-08-07 10:52:00,73.8,61.7,29.71,SSW,202,9.6,11.2,66,0.04,,CLR,0.42,VWS V14.01,2013-08-07 14:52:00,
2013-08-07 10:57:00,74.7,62.6,29.71,South,180,7.4,11.2,66,0.04,,CLR,0.42,VWS V14.01,2013-08-07 14:57:00,
2013-08-07 11:00:00,75.6,63.8,29.71,SSE,158,3.8,11.2,67,0.04,,CLR,0.42,VWS V14.01,2013-08-07 15:00:00,
2013-08-07 11:02:00,75.6,62.5,29.71,SSW,202,3.6,8.5,64,0.00,,CLR,0.42,VWS V14.01,2013-08-07 15:02:00,
2013-08-07 11:07:00,76.5,62.0,29.68,SW,225,5.4,8.5,61,0.00,,CLR,0.42,VWS V14.01,2013-08-07 15:07:00,
2013-08-07 11:12:00,77.2,61.8,29.68,SSW,202,5.8,8.5,59,0.00,,CLR,0.42,VWS V14.01,2013-08-07 15:12:00,
2013-08-07 11:17:00,77.5,61.1,29.68,South,180,3.4,10.3,57,0.00,,CLR,0.42,VWS V14.01,2013-08-07 15:17:00,
2013-08-07 11:22:00,77.9,62.4,29.71,SSW,202,10.7,12.3,59,0.00,,CLR,0.42,VWS V14.01,2013-08-07 15:22:00,
2013-08-07 11:27:00,77.7,62.3,29.71,SSW,202,6.5,12.3,59,0.00,,CLR,0.42,VWS V14.01,2013-08-07 15:27:00,
2013-08-07 11:32:00,78.1,61.1,29.71,WSW,248,7.6,12.3,56,0.00,,CLR,0.42,VWS V14.01,2013-08-07 15:32:00,
2013-08-07 11:37:00,77.9,61.0,29.71,SSW,202,7.6,12.3,56,0.00,,CLR,0.42,VWS V14.01,2013-08-07 15:37:00,
2013-08-07 11:42:00,78.4,63.4,29.71,SW,225,5.6,12.3,60,0.00,,CLR,0.42,VWS V14.01,2013-08-07 15:42:00,
2013-08-07 11:48:00,79.0,62.5,29.71,WSW,248,10.3,12.3,57,0.00,,CLR,0.42,VWS V14.01,2013-08-07 15:48:00,
2013-08-07 11:53:00,79.3,62.3,29.68,SSW,202,5.8,12.3,56,0.00,,CLR,0.42,VWS V14.01,2013-08-07 15:53:00,
2013-08-07 11:58:00,79.5,60.9,29.68,SSW,202,8.5,12.3,53,0.00,,CLR,0.42,VWS V14.01,2013-08-07 15:58:00,
2013-08-07 12:00:00,79.7,62.6,29.68,SW,225,6.5,12.3,56,0.00,,CLR,0.42,VWS V14.01,2013-08-07 16:00:00,
2013-08-07 12:03:00,79.9,62.3,29.68,SW,225,6.5,9.8,55,0.00,,CLR,0.42,VWS V14.01,2013-08-07 16:03:00,
2013-08-07 12:08:00,80.2,62.1,29.68,WSW,248,7.6,12.3,54,0.00,,CLR,0.42,VWS V14.01,2013-08-07 16:08:00,
2013-08-07 12:13:00,80.6,58.5,29.68,SSW,202,7.4,15.2,47,0.00,,CLR,0.42,VWS V14.01,2013-08-07 16:13:00,
2013-08-07 12:18:00,81.0,58.9,29.68,SW,225,8.7,15.2,47,0.00,,CLR,0.42,VWS V14.01,2013-08-07 16:18:00,
2013-08-07 12:23:00,81.0,58.3,29.68,WSW,248,13.6,15.2,46,0.00,,CLR,0.42,VWS V14.01,2013-08-07 16:23:00,
2013-08-07 12:28:00,81.3,59.2,29.68,WSW,248,8.1,15.2,47,0.00,,CLR,0.42,VWS V14.01,2013-08-07 16:28:00,
2013-08-07 12:33:00,81.5,59.3,29.68,SW,225,6.5,15.2,47,0.00,,CLR,0.42,VWS V14.01,2013-08-07 16:33:00,
2013-08-07 12:38:00,81.5,59.3,29.68,WSW,248,9.8,15.2,47,0.00,,CLR,0.42,VWS V14.01,2013-08-07 16:38:00,
2013-08-07 12:43:00,82.0,59.8,29.68,West,270,5.6,15.4,47,0.00,,CLR,0.42,VWS V14.01,2013-08-07 16:43:00,
2013-08-07 12:48:00,82.0,59.8,29.68,SW,225,5.6,15.4,47,0.00,,CLR,0.42,VWS V14.01,2013-08-07 16:48:00,
2013-08-07 12:53:00,82.8,59.3,29.68,West,270,8.5,15.4,45,0.00,,CLR,0.42,VWS V14.01,2013-08-07 16:53:00,
2013-08-07 12:58:00,82.8,59.9,29.68,SW,225,6.3,15.4,46,0.00,,CLR,0.42,VWS V14.01,2013-08-07 16:58:00,
2013-08-07 13:00:00,82.9,60.7,29.68,WSW,248,10.1,15.4,47,0.00,,CLR,0.42,VWS V14.01,2013-08-07 17:00:00,
2013-08-07 13:03:00,82.9,61.8,29.68,SW,225,8.7,10.1,49,0.00,,CLR,0.42,VWS V14.01,2013-08-07 17:03:00,
2013-08-07 13:08:00,83.5,62.9,29.68,South,180,4.9,13.2,50,0.00,,CLR,0.42,VWS V14.01,2013-08-07 17:08:00,
2013-08-07 13:13:00,83.8,61.5,29.68,WSW,248,3.6,13.2,47,0.00,,CLR,0.42,VWS V14.01,2013-08-07 17:13:00,
2013-08-07 13:18:00,83.8,62.1,29.68,WSW,248,4.0,13.2,48,0.00,,CLR,0.42,VWS V14.01,2013-08-07 17:18:00,
2013-08-07 13:23:00,84.2,61.8,29.68,WNW,292,5.8,13.2,47,0.00,,CLR,0.42,VWS V14.01,2013-08-07 17:23:00,
2013-08-07 13:28:00,84.6,63.3,29.68,WSW,248,4.0,13.2,49,0.00,,CLR,0.42,VWS V14.01,2013-08-07 17:28:00,
2013-08-07 13:33:00,85.5,63.5,29.68,West,270,4.3,13.2,48,0.00,,CLR,0.42,VWS V14.01,2013-08-07 17:33:00,
2013-08-07 13:38:00,85.3,62.8,29.68,SSW,202,4.9,13.2,47,0.00,,CLR,0.42,VWS V14.01,2013-08-07 17:38:00,
2013-08-07 13:43:00,86.2,64.2,29.68,WSW,248,2.9,13.2,48,0.00,,CLR,0.42,VWS V14.01,2013-08-07 17:43:00,
2013-08-07 13:48:00,85.8,63.3,29.68,NNW,338,5.8,13.2,47,0.00,,CLR,0.42,VWS V14.01,2013-08-07 17:48:00,
2013-08-07 13:53:00,85.8,62.0,29.68,West,270,5.4,13.2,45,0.00,,CLR,0.42,VWS V14.01,2013-08-07 17:53:00,
2013-08-07 13:58:00,85.8,62.0,29.68,SSW,202,2.2,13.2,45,0.00,,CLR,0.42,VWS V14.01,2013-08-07 17:58:00,
2013-08-07 14:00:00,86.5,62.1,29.68,WNW,292,3.1,13.2,44,0.00,,CLR,0.42,VWS V14.01,2013-08-07 18:00:00,
2013-08-07 14:03:00,86.9,64.9,29.68,West,270,7.2,8.7,48,0.00,,CLR,0.42,VWS V14.01,2013-08-07 18:03:00,
2013-08-07 14:08:00,86.0,62.8,29.68,WSW,248,6.3,9.8,46,0.00,,CLR,0.42,VWS V14.01,2013-08-07 18:08:00,
2013-08-07 14:14:00,86.4,62.5,29.68,SW,225,6.3,9.8,45,0.00,,CLR,0.42,VWS V14.01,2013-08-07 18:14:00,
2013-08-07 14:19:00,86.4,62.5,29.68,WSW,248,6.7,9.8,45,0.00,,CLR,0.42,VWS V14.01,2013-08-07 18:19:00,
2013-08-07 14:24:00,85.8,63.9,29.68,SW,225,5.4,9.8,48,0.00,,CLR,0.42,VWS V14.01,2013-08-07 18:24:00,
2013-08-07 14:29:00,86.0,64.0,29.68,West,270,5.8,10.3,48,0.00,,CLR,0.42,VWS V14.01,2013-08-07 18:29:00,
2013-08-07 14:34:00,86.5,65.1,29.68,SW,225,2.0,10.3,49,0.00,,CLR,0.42,VWS V14.01,2013-08-07 18:34:00,
2013-08-07 14:39:00,86.7,63.5,29.68,WSW,248,4.7,10.3,46,0.00,,CLR,0.42,VWS V14.01,2013-08-07 18:39:00,
2013-08-07 14:44:00,86.9,63.7,29.68,WSW,248,3.1,10.3,46,0.00,,CLR,0.42,VWS V14.01,2013-08-07 18:44:00,
2013-08-07 14:49:00,87.4,64.1,29.68,WSW,248,7.4,10.3,46,0.00,,CLR,0.42,VWS V14.01,2013-08-07 18:49:00,
2013-08-07 14:54:00,87.3,64.6,29.68,NW,315,4.0,10.3,47,0.00,,CLR,0.42,VWS V14.01,2013-08-07 18:54:00,
2013-08-07 14:59:00,88.5,66.3,29.68,West,270,3.6,10.3,48,0.00,,CLR,0.42,VWS V14.01,2013-08-07 18:59:00,
2013-08-07 15:00:00,88.7,65.9,29.68,West,270,5.4,10.3,47,0.00,,CLR,0.42,VWS V14.01,2013-08-07 19:00:00,
2013-08-07 15:04:00,88.2,62.9,29.68,West,270,4.9,8.5,43,0.00,,CLR,0.42,VWS V14.01,2013-08-07 19:04:00,
2013-08-07 15:09:00,88.2,63.5,29.68,SW,225,6.0,8.7,44,0.00,,CLR,0.42,VWS V14.01,2013-08-07 19:09:00,
2013-08-07 15:14:00,87.8,63.8,29.68,West,270,5.4,8.7,45,0.00,,CLR,0.42,VWS V14.01,2013-08-07 19:14:00,
2013-08-07 15:19:00,87.3,63.3,29.68,WSW,248,5.8,9.6,45,0.00,,CLR,0.42,VWS V14.01,2013-08-07 19:19:00,
2013-08-07 15:24:00,87.6,64.3,29.68,West,270,5.8,10.3,46,0.00,,CLR,0.42,VWS V14.01,2013-08-07 19:24:00,
2013-08-07 15:29:00,88.0,64.0,29.68,WSW,248,5.4,10.3,45,0.00,,CLR,0.42,VWS V14.01,2013-08-07 19:29:00,
2013-08-07 15:34:00,88.3,64.9,29.65,WSW,248,5.6,10.3,46,0.00,,CLR,0.42,VWS V14.01,2013-08-07 19:34:00,
2013-08-07 15:39:00,88.0,63.4,29.65,SE,135,6.3,10.3,44,0.00,,CLR,0.42,VWS V14.01,2013-08-07 19:39:00,
2013-08-07 15:44:00,86.4,63.8,29.65,WSW,248,4.0,10.3,47,0.00,,CLR,0.42,VWS V14.01,2013-08-07 19:44:00,
2013-08-07 15:49:00,85.6,64.3,29.68,WSW,248,5.4,10.3,49,0.00,,CLR,0.42,VWS V14.01,2013-08-07 19:49:00,
2013-08-07 15:54:00,84.6,63.3,29.68,WSW,248,4.3,10.3,49,0.00,,CLR,0.42,VWS V14.01,2013-08-07 19:54:00,
2013-08-07 16:00:00,86.7,67.0,29.68,SSW,202,6.3,10.3,52,0.00,,CLR,0.42,VWS V14.01,2013-08-07 20:00:00,
2013-08-07 16:05:00,86.7,64.1,29.65,WSW,248,2.0,2.0,47,0.00,,CLR,0.42,VWS V14.01,2013-08-07 20:05:00,
2013-08-07 16:10:00,87.4,64.1,29.65,SW,225,8.5,8.5,46,0.00,,CLR,0.42,VWS V14.01,2013-08-07 20:10:00,
2013-08-07 16:15:00,86.5,62.1,29.65,SW,225,6.3,8.5,44,0.00,,CLR,0.42,VWS V14.01,2013-08-07 20:15:00,
2013-08-07 16:20:00,86.5,63.3,29.65,WSW,248,2.9,6.3,46,0.00,,CLR,0.42,VWS V14.01,2013-08-07 20:20:00,
2013-08-07 16:25:00,87.1,63.8,29.65,SW,225,8.1,8.1,46,0.00,,CLR,0.42,VWS V14.01,2013-08-07 20:25:00,
2013-08-07 16:30:00,87.1,63.2,29.65,WSW,248,3.8,8.1,45,0.00,,CLR,0.42,VWS V14.01,2013-08-07 20:30:00,
2013-08-07 16:35:00,87.3,63.3,29.65,WSW,248,10.3,10.3,45,0.00,,CLR,0.42,VWS V14.01,2013-08-07 20:35:00,
2013-08-07 16:40:00,86.9,63.7,29.65,NNW,338,3.4,10.3,46,0.00,,CLR,0.42,VWS V14.01,2013-08-07 20:40:00,
2013-08-07 16:45:00,87.1,62.5,29.65,WSW,248,5.4,5.4,44,0.00,,CLR,0.42,VWS V14.01,2013-08-07 20:45:00,
2013-08-07 16:50:00,87.4,63.5,29.65,SSW,202,5.8,5.8,45,0.00,,CLR,0.42,VWS V14.01,2013-08-07 20:50:00,
2013-08-07 16:55:00,87.3,64.0,29.65,WSW,248,2.9,5.8,46,0.00,,CLR,0.42,VWS V14.01,2013-08-07 20:55:00,
2013-08-07 17:00:00,87.4,63.5,29.65,West,270,6.5,6.5,45,0.00,,CLR,0.42,VWS V14.01,2013-08-07 21:00:00,
2013-08-07 17:05:00,86.9,63.7,29.65,WSW,248,2.9,6.5,46,0.00,,CLR,0.42,VWS V14.01,2013-08-07 21:05:00,
2013-08-07 17:10:00,86.7,64.1,29.65,WNW,292,4.0,4.0,47,0.00,,CLR,0.42,VWS V14.01,2013-08-07 21:10:00,
2013-08-07 17:15:00,86.5,62.7,29.65,SW,225,8.1,8.1,45,0.00,,CLR,0.42,VWS V14.01,2013-08-07 21:15:00,
2013-08-07 17:20:00,86.5,63.9,29.65,SW,225,5.6,8.1,47,0.00,,CLR,0.42,VWS V14.01,2013-08-07 21:20:00,
2013-08-07 17:25:00,86.5,64.5,29.65,WSW,248,3.6,5.6,48,0.00,,CLR,0.42,VWS V14.01,2013-08-07 21:25:00,
2013-08-07 17:30:00,86.5,63.3,29.65,SSW,202,6.3,6.3,46,0.00,,CLR,0.42,VWS V14.01,2013-08-07 21:30:00,
2013-08-07 17:35:00,86.0,63.4,29.65,West,270,4.0,6.3,47,0.00,,CLR,0.42,VWS V14.01,2013-08-07 21:35:00,
2013-08-07 17:40:00,84.7,63.5,29.65,West,270,4.7,4.7,49,0.00,,CLR,0.42,VWS V14.01,2013-08-07 21:40:00,
2013-08-07 17:45:00,82.9,64.1,29.65,SW,225,2.7,4.7,53,0.00,,CLR,0.42,VWS V14.01,2013-08-07 21:45:00,
2013-08-07 17:50:00,84.6,66.1,29.65,SW,225,5.8,5.8,54,0.00,,CLR,0.42,VWS V14.01,2013-08-07 21:50:00,
2013-08-07 17:55:00,84.6,65.6,29.65,WSW,248,3.1,5.8,53,0.00,,CLR,0.42,VWS V14.01,2013-08-07 21:55:00,
2013-08-07 18:00:00,84.6,64.5,29.65,SSW,202,4.5,4.5,51,0.00,,CLR,0.42,VWS V14.01,2013-08-07 22:00:00,
2013-08-07 18:05:00,84.9,65.3,29.65,SSW,202,8.7,8.7,52,0.00,,CLR,0.42,VWS V14.01,2013-08-07 22:05:00,
2013-08-07 18:10:00,85.3,66.2,29.65,SW,225,5.6,8.7,53,0.00,,CLR,0.42,VWS V14.01,2013-08-07 22:10:00,
2013-08-07 18:15:00,84.9,65.9,29.65,WSW,248,5.8,5.8,53,0.00,,CLR,0.42,VWS V14.01,2013-08-07 22:15:00,
2013-08-07 18:20:00,84.6,66.1,29.65,SW,225,1.6,5.8,54,0.00,,CLR,0.42,VWS V14.01,2013-08-07 22:20:00,
2013-08-07 18:25:00,83.7,65.8,29.65,West,270,2.9,2.9,55,0.00,,CLR,0.42,VWS V14.01,2013-08-07 22:25:00,
2013-08-07 19:42:00,82.4,66.7,29.65,WSW,248,2.9,4.7,59,0.00,,CLR,0.42,VWS V14.01,2013-08-07 23:42:00,
2013-08-07 19:47:00,74.8,70.7,29.65,NNW,338,5.6,5.6,87,0.00,,CLR,0.42,VWS V14.01,2013-08-07 23:47:00,
2013-08-07 19:52:00,73.9,69.8,29.65,NNW,338,5.6,5.6,87,0.00,,CLR,0.42,VWS V14.01,2013-08-07 23:52:00,
2013-08-07 19:57:00,73.0,69.9,29.65,NNW,338,5.6,5.6,90,0.00,,CLR,0.42,VWS V14.01,2013-08-07 23:57:00,
2013-08-07 20:00:00,73.0,69.9,29.65,NNW,338,5.6,5.6,90,0.00,,CLR,0.42,VWS V14.01,2013-08-08 00:00:00,
2013-08-07 20:02:00,73.0,70.3,29.65,NNW,338,5.6,5.6,91,0.00,,CLR,0.42,VWS V14.01,2013-08-08 00:02:00,
2013-08-07 20:07:00,73.2,70.8,29.65,NNW,338,5.6,5.6,92,0.00,,CLR,0.42,VWS V14.01,2013-08-08 00:07:00,
2013-08-07 20:12:00,72.9,70.4,29.65,NNW,338,5.6,5.6,92,0.00,,CLR,0.42,VWS V14.01,2013-08-08 00:12:00,
2013-08-07 20:17:00,72.5,70.1,29.65,NNW,338,5.6,5.6,92,0.00,,CLR,0.42,VWS V14.01,2013-08-08 00:17:00,
2013-08-07 20:22:00,72.0,69.5,29.65,NNW,338,5.6,5.6,92,0.00,,CLR,0.42,VWS V14.01,2013-08-08 00:22:00,
2013-08-07 20:27:00,72.0,69.8,29.65,NNW,338,5.6,5.6,93,0.00,,CLR,0.42,VWS V14.01,2013-08-08 00:27:00,
2013-08-07 20:32:00,72.0,70.1,29.65,NNW,338,5.6,5.6,94,0.00,,CLR,0.42,VWS V14.01,2013-08-08 00:32:00,
2013-08-07 20:37:00,71.8,70.0,29.65,NNW,338,5.6,5.6,94,0.00,,CLR,0.42,VWS V14.01,2013-08-08 00:37:00,
2013-08-07 20:42:00,71.6,69.8,29.65,NNW,338,5.6,5.6,94,0.00,,CLR,0.42,VWS V14.01,2013-08-08 00:42:00,
2013-08-07 20:47:00,71.4,69.9,29.65,NNW,338,5.6,5.6,95,0.00,,CLR,0.42,VWS V14.01,2013-08-08 00:47:00,
2013-08-07 20:52:00,71.4,70.2,29.65,NNW,338,5.6,5.6,96,0.00,,CLR,0.42,VWS V14.01,2013-08-08 00:52:00,
2013-08-07 20:57:00,71.2,70.1,29.65,NNW,338,5.6,5.6,96,0.00,,CLR,0.42,VWS V14.01,2013-08-08 00:57:00,
2013-08-07 21:00:00,71.2,70.3,29.65,NNW,338,5.6,5.6,97,0.00,,CLR,0.42,VWS V14.01,2013-08-08 01:00:00,
2013-08-07 21:02:00,71.2,70.3,29.65,NNW,338,5.6,5.6,97,0.00,,CLR,0.42,VWS V14.01,2013-08-08 01:02:00,
2013-08-07 21:07:00,71.1,70.2,29.65,NNW,338,5.6,5.6,97,0.00,,CLR,0.42,VWS V14.01,2013-08-08 01:07:00,
2013-08-07 21:12:00,70.9,70.0,29.65,NNW,338,5.6,5.6,97,0.50,,CLR,0.92,VWS V14.01,2013-08-08 01:12:00,
2013-08-07 21:17:00,70.9,70.0,29.65,NNW,338,5.6,5.6,97,0.50,,CLR,0.92,VWS V14.01,2013-08-08 01:17:00,
2013-08-07 21:22:00,70.7,69.8,29.68,NNW,338,5.6,5.6,97,0.50,,CLR,0.92,VWS V14.01,2013-08-08 01:22:00,
2013-08-07 21:27:00,70.5,69.6,29.68,NNW,338,5.6,5.6,97,0.50,,CLR,0.92,VWS V14.01,2013-08-08 01:27:00,
2013-08-07 21:33:00,70.3,69.4,29.68,NNW,338,5.6,5.6,97,0.50,,CLR,0.92,VWS V14.01,2013-08-08 01:33:00,
2013-08-07 21:38:00,70.3,69.8,29.68,NNW,338,5.6,5.6,98,0.50,,CLR,0.92,VWS V14.01,2013-08-08 01:38:00,
2013-08-07 21:43:00,70.3,69.8,29.68,NNW,338,5.6,5.6,98,0.50,,CLR,0.92,VWS V14.01,2013-08-08 01:43:00,
2013-08-07 21:48:00,70.5,69.9,29.68,NNW,338,5.6,5.6,98,0.50,,CLR,0.92,VWS V14.01,2013-08-08 01:48:00,
2013-08-07 21:53:00,70.5,69.9,29.68,NNW,338,5.6,5.6,98,0.50,,CLR,0.92,VWS V14.01,2013-08-08 01:53:00,
2013-08-07 21:58:00,70.7,70.1,29.68,NNW,338,5.6,5.6,98,0.50,,CLR,0.92,VWS V14.01,2013-08-08 01:58:00,
2013-08-07 22:00:00,70.7,70.1,29.68,NNW,338,5.6,5.6,98,0.50,,CLR,0.92,VWS V14.01,2013-08-08 02:00:00,
2013-08-07 22:03:00,70.9,70.3,29.65,NNW,338,5.6,5.6,98,0.50,,CLR,0.92,VWS V14.01,2013-08-08 02:03:00,
2013-08-07 22:08:00,71.1,70.5,29.65,NNW,338,5.6,5.6,98,0.50,,CLR,0.92,VWS V14.01,2013-08-08 02:08:00,
2013-08-07 22:13:00,71.2,70.7,29.65,NNW,338,5.6,5.6,98,0.50,,CLR,0.92,VWS V14.01,2013-08-08 02:13:00,
2013-08-07 22:18:00,71.2,70.7,29.68,NNW,338,5.6,5.6,98,0.50,,CLR,0.92,VWS V14.01,2013-08-08 02:18:00,
2013-08-07 22:23:00,71.2,70.7,29.68,NNW,338,5.6,5.6,98,0.50,,CLR,0.92,VWS V14.01,2013-08-08 02:23:00,
2013-08-07 22:28:00,71.1,70.5,29.68,NNW,338,5.6,5.6,98,0.50,,CLR,0.92,VWS V14.01,2013-08-08 02:28:00,
2013-08-07 22:33:00,70.9,70.3,29.68,NNW,338,5.6,5.6,98,0.50,,CLR,0.92,VWS V14.01,2013-08-08 02:33:00,
2013-08-07 22:38:00,70.5,69.9,29.68,NNW,338,5.6,5.6,98,0.50,,CLR,0.92,VWS V14.01,2013-08-08 02:38:00,
2013-08-07 22:43:00,70.2,69.6,29.68,NNW,338,5.6,5.6,98,0.50,,CLR,0.92,VWS V14.01,2013-08-08 02:43:00,
2013-08-07 22:48:00,70.0,69.4,29.71,NNW,338,5.6,5.6,98,0.50,,CLR,0.92,VWS V14.01,2013-08-08 02:48:00,
2013-08-07 22:54:00,69.8,69.2,29.71,NNW,338,5.6,5.6,98,0.50,,CLR,0.92,VWS V14.01,2013-08-08 02:54:00,
2013-08-07 22:59:00,69.6,69.0,29.71,NNW,338,5.6,5.6,98,0.50,,CLR,0.92,VWS V14.01,2013-08-08 02:59:00,
2013-08-07 23:00:00,69.6,69.0,29.71,NNW,338,5.6,5.6,98,0.50,,CLR,0.92,VWS V14.01,2013-08-08 03:00:00,
2013-08-07 23:04:00,69.3,68.7,29.74,NNW,338,5.6,5.6,98,0.00,,CLR,0.92,VWS V14.01,2013-08-08 03:04:00,
2013-08-07 23:09:00,69.3,68.7,29.74,NNW,338,5.6,5.6,98,0.00,,CLR,0.92,VWS V14.01,2013-08-08 03:09:00,
2013-08-07 23:14:00,69.3,68.7,29.74,NNW,338,5.6,5.6,98,0.00,,CLR,0.92,VWS V14.01,2013-08-08 03:14:00,
2013-08-07 23:19:00,69.3,68.4,29.74,NNW,338,5.6,5.6,97,0.00,,CLR,0.92,VWS V14.01,2013-08-08 03:19:00,
2013-08-07 23:24:00,69.3,67.8,29.74,NNW,338,5.6,5.6,95,0.00,,CLR,0.92,VWS V14.01,2013-08-08 03:24:00,
2013-08-07 23:29:00,69.1,67.6,29.74,NNW,338,5.6,5.6,95,0.00,,CLR,0.92,VWS V14.01,2013-08-08 03:29:00,
2013-08-07 23:34:00,68.9,66.8,29.74,NNW,338,5.6,5.6,93,0.00,,CLR,0.92,VWS V14.01,2013-08-08 03:34:00,
2013-08-07 23:39:00,69.1,66.7,29.74,NNW,338,5.6,5.6,92,0.00,,CLR,0.92,VWS V14.01,2013-08-08 03:39:00,
2013-08-07 23:44:00,68.9,66.5,29.74,NNW,338,5.6,5.6,92,0.00,,CLR,0.92,VWS V14.01,2013-08-08 03:44:00,
2013-08-07 23:49:00,68.5,66.1,29.74,NNW,338,5.6,5.6,92,0.00,,CLR,0.92,VWS V14.01,2013-08-08 03:49:00,
2013-08-07 23:54:00,68.2,65.8,29.74,NNW,338,5.6,5.6,92,0.00,,CLR,0.92,VWS V14.01,2013-08-08 03:54:00,
2013-08-07 23:59:00,67.8,65.7,29.74,NNW,338,5.6,5.6,93,0.00,,CLR,0.92,VWS V14.01,2013-08-08 03:59:00,